This demonstration page uses our WeatherBlox Daily Observations layout. Learn more.

Left ArrowRight Arrow

34.16533, -84.80231

Hourly Observations for February 1, 2022

Temp ( °F °C ) Dew Point ( °F °C ) Humidity (%) Winds ( mph kmh ) Pressure ( in mb ) Visibility ( mi km ) Precip ( " mm )
12:15 am 00:15 Clear 30 -1 28 -2 93 93 ENE 3 6 30.26 1025 10 16 0.00 0.00
12:35 am 00:35 Clear 32 0 27 -3 80 80 E 5 7 30.25 1024 10 16 0.00 0.00
12:55 am 00:55 Clear 30 -1 27 -3 86 86 Calm 30.25 1024 10 16 0.00 0.00
1:15 am 01:15 Clear 32 0 25 -4 75 75 Calm 30.25 1024 10 16 0.00 0.00
1:35 am 01:35 Clear 30 -1 27 -3 86 86 Calm 30.24 1024 10 16 0.00 0.00
1:55 am 01:55 Mostly Clear 30 -1 27 -3 86 86 Calm 30.24 1024 10 16 0.00 0.00
2:15 am 02:15 Partly Cloudy 30 -1 25 -4 80 80 Calm 30.25 1024 10 16 0.00 0.00
2:35 am 02:35 Mostly Clear 30 -1 25 -4 80 80 Calm 30.25 1024 10 16 0.00 0.00
2:55 am 02:55 Mostly Clear 28 -2 27 -3 93 93 E 5 7 30.26 1025 10 16 0.00 0.00
3:15 am 03:15 Mostly Clear 28 -2 27 -3 93 93 E 5 7 30.26 1025 10 16 0.00 0.00
3:35 am 03:35 Mostly Clear 30 -1 25 -4 80 80 E 5 7 30.25 1024 10 16 0.00 0.00
3:55 am 03:55 Mostly Clear 30 -1 25 -4 80 80 E 5 7 30.25 1024 10 16 0.00 0.00
4:15 am 04:15 Mostly Clear 32 0 25 -4 75 75 Calm 30.26 1025 10 16 0.00 0.00
4:35 am 04:35 Clear 32 0 23 -5 69 69 E 5 7 30.27 1025 10 16 0.00 0.00
4:55 am 04:55 Clear 32 0 23 -5 69 69 E 5 7 30.27 1025 10 16 0.00 0.00
5:15 am 05:15 Clear 32 0 23 -5 69 69 E 5 7 30.27 1025 10 16 0.00 0.00
5:35 am 05:35 Clear 32 0 23 -5 69 69 Calm 30.27 1025 10 16 0.00 0.00
5:55 am 05:55 Clear 34 1 23 -5 65 65 VRB 5 7 30.28 1025 10 16 0.00 0.00
6:15 am 06:15 Clear 36 2 23 -5 60 60 E 6 9 30.28 1026 10 16 0.00 0.00
6:35 am 06:35 Clear 34 1 23 -5 65 65 ENE 3 6 30.30 1026 10 16 0.00 0.00
6:55 am 06:55 Clear 34 1 23 -5 65 65 VRB 5 7 30.30 1026 10 16 0.00 0.00
7:15 am 07:15 Partly Cloudy 36 2 23 -5 60 60 E 8 13 30.30 1026 10 16 0.00 0.00
7:35 am 07:35 Partly Cloudy 37 3 23 -5 56 56 ESE 8 13 30.31 1026 10 16 0.00 0.00
7:55 am 07:55 Sunny 37 3 25 -4 60 60 ESE 7 11 30.32 1027 10 16 0.00 0.00
8:15 am 08:15 Sunny 37 3 25 -4 60 60 ESE 9 15 30.32 1027 10 16 0.00 0.00
8:35 am 08:35 Sunny 37 3 25 -4 60 60 E 9 15 30.33 1027 10 16 0.00 0.00
8:55 am 08:55 Sunny 39 4 27 -3 61 61 E 9 15 30.34 1027 10 16 0.00 0.00
9:15 am 09:15 Sunny 41 5 27 -3 57 57 E 9 15 30.34 1028 10 16 0.00 0.00
9:35 am 09:35 Sunny 43 6 27 -3 53 53 ESE 10 17 30.34 1027 10 16 0.00 0.00
9:55 am 09:55 Sunny 43 6 28 -2 57 57 E 9 15 30.35 1028 10 16 0.00 0.00
10:15 am 10:15 Sunny 45 7 28 -2 53 53 E 10 17 30.35 1028 10 16 0.00 0.00
10:35 am 10:35 Sunny 46 8 28 -2 50 50 ESE 9 15 30.35 1028 10 16 0.00 0.00
10:55 am 10:55 Sunny 48 9 28 -2 46 46 E 10 17 30.34 1028 10 16 0.00 0.00
11:15 am 11:15 Sunny 50 10 28 -2 43 43 VRB 7 11 30.33 1027 10 16 0.00 0.00
11:35 am 11:35 Sunny 52 11 28 -2 41 41 E 10 17 30.33 1027 10 16 0.00 0.00
11:55 am 11:55 Sunny 54 12 27 -3 35 35 E 9 15 30.31 1027 10 16 0.00 0.00
12:15 pm 12:15 Sunny 54 12 27 -3 35 35 ESE 12 19 30.30 1026 10 16 0.00 0.00
12:35 pm 12:35 Sunny 55 13 27 -3 33 33 E 10 17 30.29 1026 10 16 0.00 0.00
12:55 pm 12:55 Sunny 55 13 25 -4 31 31 ESE 12 19 30.27 1025 10 16 0.00 0.00
1:15 pm 13:15 Sunny 57 14 27 -3 31 31 ESE 9 15 30.27 1025 10 16 0.00 0.00
1:35 pm 13:35 Sunny 57 14 25 -4 29 29 E 13 20 30.26 1025 10 16 0.00 0.00
1:55 pm 13:55 Sunny 59 15 25 -4 27 27 ESE 12 19 30.25 1024 10 16 0.00 0.00
2:15 pm 14:15 Sunny 59 15 27 -3 29 29 SE 8 13 30.24 1024 10 16 0.00 0.00
2:35 pm 14:35 Sunny 61 16 27 -3 27 27 VRB 6 9 30.22 1023 10 16 0.00 0.00
2:55 pm 14:55 Sunny 59 15 27 -3 29 29 ESE 12 19 30.22 1023 10 16 0.00 0.00
3:15 pm 15:15 Sunny 61 16 27 -3 27 27 E 10 17 30.20 1023 10 16 0.00 0.00
3:35 pm 15:35 Sunny 61 16 25 -4 25 25 SE 9 15 30.20 1023 10 16 0.00 0.00
3:55 pm 15:55 Sunny 61 16 25 -4 25 25 ESE 10 17 30.20 1023 10 16 0.00 0.00
4:15 pm 16:15 Sunny 61 16 25 -4 25 25 ESE 8 13 30.20 1023 10 16 0.00 0.00
4:35 pm 16:35 Sunny 61 16 25 -4 25 25 SE 10 17 30.20 1023 10 16 0.00 0.00
4:55 pm 16:55 Sunny 61 16 25 -4 25 25 VRB 7 11 30.20 1023 10 16 0.00 0.00
5:15 pm 17:15 Sunny 59 15 25 -4 27 27 VRB 7 11 30.21 1023 10 16 0.00 0.00
5:35 pm 17:35 Sunny 59 15 25 -4 27 27 SE 9 15 30.21 1023 10 16 0.00 0.00
5:55 pm 17:55 Sunny 57 14 27 -3 31 31 VRB 6 9 30.21 1023 10 16 0.00 0.00
6:15 pm 18:15 Clear 55 13 27 -3 33 33 VRB 6 9 30.22 1023 10 16 0.00 0.00
6:35 pm 18:35 Mostly Clear 55 13 27 -3 33 33 E 6 9 30.23 1024 10 16 0.00 0.00
6:55 pm 18:55 Mostly Cloudy 54 12 28 -2 38 38 E 5 7 30.23 1024 10 16 0.00 0.00
7:15 pm 19:15 Cloudy 52 11 28 -2 41 41 E 6 9 30.25 1024 10 16 0.00 0.00
7:35 pm 19:35 Cloudy 52 11 28 -2 41 41 ESE 6 9 30.25 1024 10 16 0.00 0.00
7:55 pm 19:55 Cloudy 52 11 28 -2 41 41 E 6 9 30.25 1024 10 16 0.00 0.00
8:15 pm 20:15 Cloudy 52 11 30 -1 44 44 ESE 6 9 30.26 1025 10 16 0.00 0.00
8:35 pm 20:35 Cloudy 50 10 30 -1 47 47 E 7 11 30.25 1024 10 16 0.00 0.00
8:55 pm 20:55 Cloudy 50 10 30 -1 47 47 E 6 9 30.25 1024 10 16 0.00 0.00
9:15 pm 21:15 Cloudy 50 10 30 -1 47 47 E 8 13 30.25 1024 10 16 0.00 0.00
9:35 pm 21:35 Cloudy 50 10 32 0 50 50 E 8 13 30.25 1024 10 16 0.00 0.00
9:55 pm 21:55 Cloudy 50 10 32 0 50 50 E 9 15 30.25 1024 10 16 0.00 0.00
10:15 pm 22:15 Cloudy 50 10 32 0 50 50 E 9 15 30.25 1024 10 16 0.00 0.00
10:35 pm 22:35 Cloudy 48 9 32 0 54 54 E 9 15 30.25 1024 10 16 0.00 0.00
10:55 pm 22:55 Cloudy 48 9 32 0 54 54 E 6 9 30.25 1024 10 16 0.00 0.00
11:15 pm 23:15 Cloudy 48 9 32 0 54 54 E 9 15 30.25 1024 10 16 0.00 0.00
11:35 pm 23:35 Cloudy 48 9 32 0 54 54 E 8 13 30.25 1024 10 16 0.00 0.00
11:55 pm 23:55 Cloudy 48 9 32 0 54 54 E 8 13 30.25 1024 10 16 0.00 0.00

Powered by AerisWeather